Regional Weather Roundup
Issued by NWS Sioux Falls, SD

Home | Current Version | Previous Version | Text Only | Print | Product List | Glossary On
Versions: 1 2 3 4 5 6 7 8 9 10 11 12 13 14 15 16 17 18 19 20 21 22 23 24 25 26 27 28 29 30 31 32 33 34 35 36 37 38 39 40 41 42 43 44 45 46 47 48 49 50
000
ASUS43 KFSD 311510
RWRFSD

WEATHER ROUNDUP FOR SE SOUTH DAKOTA/SW MINNESOTA/NW IOWA
NATIONAL WEATHER SERVICE SIOUX FALLS SD
1000 AM CDT FRI JUL 31 2015

NOTE: "FAIR" INDICATES FEW OR NO CLOUDS BELOW 12,000 FEET WITH NO
SIGNIFICANT WEATHER AND OR OBSTRUCTIONS TO VISIBILITY.


SDZ038>040-050-052>070-311600-
SOUTHEAST SOUTH DAKOTA

CITY           SKY/WX    TMP DP  RH WIND       PRES   REMARKS
BROOKINGS      SUNNY     73  55  53 N6        30.19S
CHAMBERLAIN    SUNNY     74  57  55 E7        30.18S
HURON          SUNNY     76  56  49 NE3       30.16S
MADISON        FAIR      73  57  56 NE7       30.19R
MITCHELL       SUNNY     76  60  57 CALM      30.17S
SIOUX FALLS    MOSUNNY   76  61  59 NE7       30.17S
WINNER         FAIR      81  59  47 E8        30.18S
YANKTON        SUNNY     75  70  83 CALM      30.13R
$$

MNZ071-072-080-081-089-090-097-098-311600-
SOUTHWEST MINNESOTA

CITY           SKY/WX    TMP DP  RH WIND       PRES   REMARKS
FAIRMONT       PTSUNNY   73  55  53 NW5       30.15S
JACKSON        SUNNY     73  57  56 NW5       30.17S
LUVERNE        SUNNY     75  55  50 NE3       30.17F
MARSHALL       SUNNY     73  54  49 W7        30.17S
MONTEVIDEO     SUNNY     79  66  65 NW5       30.15S
PIPESTONE      SUNNY     75  54  46 E3        30.18S
REDWOOD FALLS  SUNNY     74  58  57 W7        30.13S
TRACY          SUNNY     75  59  57 W3        30.16F
WINDOM         SUNNY     73  55  53 CALM      30.17R
WORTHINGTON    SUNNY     72  57  60 N5        30.17F
$$

IAZ001>003-012>014-020>022-031-032-NEZ013-014-SDZ071-311600-
NORTHWEST IOWA

CITY           SKY/WX    TMP DP  RH WIND       PRES   REMARKS
CHEROKEE       SUNNY     77  68  72 CALM      30.15F
DENISON        SUNNY     77  68  73 CALM      30.13F HAZE
ESTHERVILLE    SUNNY     73  60  63 N6        30.16R
LE MARS        SUNNY     79  68  69 CALM      30.16S
ORANGE CITY    SUNNY     77  61  57 CALM      30.16S
SHELDON        SUNNY     75  63  64 N7        30.16S
SIOUX CITY     SUNNY     77  66  68 E3        30.14F
SPENCER        SUNNY     76  59  55 N5        30.16S
STORM LAKE     SUNNY     79  59  50 CALM      30.17S
$$

ABBREVIATIONS USED IN REMARKS
   TC - TEMPERATURE IN CELSIUS
  WCI - WIND CHILL INDEX
   HX - HEAT INDEX
  VSB - VISIBILITY




USA.gov is the U.S. government's official web portal to all federal, state and local government web resources and services.